DW8219 Weather Reports


Display with metric or nautical units.
time (UTC)temp
F
wind
direction
speed
MPH
gust
MPH
rain 1hr
in
rain 24hr
in
rain mn
in
humidity
%
barometer
mb
20180524053845 64 294 1.0 3.0 0.00 0.31 0.00 68 1015.5
20180524053345 64 296 0.0 2.0 0.00 0.31 0.00 68 1015.5
20180524052846 64 296 0.0 1.0 0.00 0.31 0.00 67 1015.4
20180524052345 64 296 0.0 1.0 0.00 0.31 0.00 67 1015.4
20180524051846 64 296 0.0 0.0 0.00 0.31 0.00 66 1015.4
20180524051346 65 296 0.0 1.0 0.00 0.31 0.00 66 1015.4
20180524050845 65 296 0.0 0.0 0.00 0.31 0.00 66 1015.4
20180524050345 65 296 0.0 1.0 0.00 0.31 0.00 67 1015.5
20180524045846 65 296 0.0 1.0 0.00 0.31 0.00 66 1015.4
20180524045346 65 296 0.0 1.0 0.00 0.31 0.00 65 1015.4
20180524044845 65 298 0.0 2.0 0.00 0.31 0.00 64 1015.4
20180524044345 65 298 0.0 2.0 0.00 0.31 0.00 64 1015.4
20180524043846 65 297 0.0 2.0 0.00 0.31 0.00 63 1015.3
20180524043345 66 304 0.0 1.0 0.00 0.31 0.00 64 1015.3
20180524042846 66 304 0.0 1.0 0.00 0.31 0.00 64 1015.3
20180524042346 66 304 0.0 3.0 0.00 0.31 0.00 64 1015.3
20180524041845 66 306 0.0 3.0 0.00 0.31 0.00 63 1015.2
20180524041345 66 308 0.0 3.0 0.00 0.31 0.00 63 1015.1
20180524040846 66 308 1.0 3.0 0.00 0.31 0.00 62 1015.1
20180524040345 67 303 1.0 3.0 0.00 0.31 0.00 62 1015.0
20180524035845 67 308 1.0 3.0 0.00 0.31 0.31 62 1015.0
20180524035346 67 307 1.0 3.0 0.00 0.31 0.31 62 1014.9
20180524034846 67 313 2.0 3.0 0.00 0.31 0.31 62 1014.9
20180524034346 67 319 1.0 3.0 0.00 0.31 0.31 62 1014.9
20180524033846 67 313 1.0 3.0 0.00 0.31 0.31 61 1014.8
20180524033346 67 313 2.0 5.0 0.00 0.31 0.31 61 1014.7
20180524032846 67 304 1.0 3.0 0.00 0.31 0.31 61 1014.6
20180524032346 68 311 1.0 3.0 0.00 0.31 0.31 59 1014.6
20180524031846 68 310 2.0 5.0 0.00 0.31 0.31 59 1014.5
20180524031346 68 267 0.0 7.0 0.00 0.31 0.31 59 1014.5
20180524030846 68 304 1.0 5.0 0.00 0.31 0.31 58 1014.6
20180524030346 69 293 2.0 3.0 0.00 0.31 0.31 58 1014.5
20180524025846 69 277 0.0 3.0 0.00 0.31 0.31 57 1014.6
20180524025346 70 276 0.0 2.0 0.00 0.31 0.31 56 1014.5
20180524024846 70 275 0.0 2.0 0.00 0.31 0.31 55 1014.5
20180524024346 70 270 0.0 3.0 0.00 0.31 0.31 54 1014.4
20180524023848 70 265 1.0 6.0 0.00 0.31 0.31 54 1014.5
20180524023346 70 315 0.0 8.0 0.00 0.31 0.31 54 1014.4
20180524022846 71 286 0.0 2.0 0.00 0.31 0.31 54 1014.4
20180524022346 71 287 0.0 3.0 0.00 0.31 0.31 53 1014.3
20180524021846 71 294 1.0 3.0 0.00 0.31 0.31 54 1014.3
20180524021346 71 249 0.0 2.0 0.00 0.31 0.31 53 1014.3
20180524020846 71 248 1.0 2.0 0.00 0.31 0.31 52 1014.3
20180524020346 71 248 1.0 3.0 0.00 0.31 0.31 52 1014.2
20180524015846 72 238 1.0 3.0 0.00 0.31 0.31 51 1014.3
20180524015346 72 229 1.0 3.0 0.00 0.31 0.31 51 1014.2
20180524014846 72 270 0.0 3.0 0.00 0.31 0.31 51 1014.2
20180524014346 72 270 0.0 3.0 0.00 0.31 0.31 50 1014.2
20180524013846 73 257 0.0 3.0 0.00 0.31 0.31 50 1014.1
20180524013347 73 306 1.0 5.0 0.00 0.31 0.31 49 1014.1
20180524012847 73 276 1.0 3.0 0.00 0.31 0.31 50 1014.0
20180524012347 73 275 1.0 7.0 0.00 0.31 0.31 50 1014.0
20180524011846 73 283 1.0 3.0 0.00 0.31 0.31 49 1014.0
20180524011346 74 291 1.0 6.0 0.00 0.31 0.31 48 1013.9
20180524010847 74 283 1.0 3.0 0.00 0.31 0.31 48 1013.8
20180524010346 74 298 1.0 5.0 0.00 0.31 0.31 48 1013.8
20180524005846 74 261 1.0 6.0 0.00 0.31 0.31 48 1013.7
20180524005346 74 266 1.0 3.0 0.00 0.31 0.31 48 1013.6
20180524004847 74 256 1.0 3.0 0.00 0.32 0.31 47 1013.5
20180524004347 74 256 1.0 3.0 0.00 0.32 0.31 47 1013.4
20180524003847 75 254 1.0 3.0 0.00 0.32 0.31 46 1013.4
20180524003346 75 271 1.0 3.0 0.00 0.32 0.31 45 1013.3
20180524002846 75 333 1.0 3.0 0.00 0.32 0.31 45 1013.3
20180524002346 76 227 1.0 3.0 0.00 0.32 0.31 45 1013.3
20180524001846 76 277 1.0 9.0 0.00 0.32 0.31 44 1013.2
20180524001346 76 288 2.0 7.0 0.00 0.32 0.31 44 1013.2
20180524000846 76 288 2.0 7.0 0.00 0.32 0.31 44 1013.2
20180524000346 77 261 1.0 3.0 0.00 0.32 0.31 43 1013.1
20180523235847 77 248 2.0 8.0 0.00 0.32 0.31 43 1013.1
20180523235347 77 328 3.0 8.0 0.00 0.32 0.31 43 1013.0
20180523234846 77 275 2.0 12.0 0.00 0.32 0.31 42 1012.9
20180523234346 77 271 3.0 12.0 0.00 0.32 0.31 42 1012.8
20180523233846 77 317 2.0 12.0 0.00 0.32 0.31 42 1012.8
20180523233346 78 297 2.0 12.0 0.00 0.32 0.31 42 1012.7
20180523232847 78 310 3.0 12.0 0.00 0.32 0.31 41 1012.7
20180523232347 78 302 3.0 10.0 0.00 0.32 0.31 41 1012.6
20180523231847 78 244 1.0 7.0 0.00 0.32 0.31 41 1012.6
20180523231347 78 271 2.0 8.0 0.00 0.32 0.31 40 1012.5
20180523230846 78 310 5.0 12.0 0.00 0.32 0.31 40 1012.5
20180523230347 78 319 5.0 10.0 0.00 0.32 0.31 40 1012.4
20180523225847 79 327 5.0 14.0 0.00 0.32 0.31 42 1012.4
20180523225346 79 318 5.0 12.0 0.00 0.32 0.31 40 1012.3
20180523224847 79 331 5.0 14.0 0.00 0.32 0.31 40 1012.3
20180523224347 79 313 3.0 9.0 0.00 0.32 0.31 41 1012.2
20180523223847 79 307 2.0 8.0 0.00 0.32 0.31 40 1012.2
20180523223347 79 327 5.0 9.0 0.00 0.32 0.31 42 1012.2
20180523222847 79 305 5.0 12.0 0.00 0.32 0.31 42 1012.2
20180523222347 80 333 3.0 10.0 0.00 0.32 0.31 41 1012.1
20180523221847 80 258 1.0 5.0 0.00 0.32 0.31 43 1012.1
20180523221347 80 247 5.0 10.0 0.00 0.32 0.31 43 1012.2
20180523220847 80 306 2.0 5.0 0.00 0.32 0.31 44 1012.1
20180523220347 80 303 2.0 3.0 0.00 0.32 0.31 45 1012.1
20180523215847 80 240 3.0 10.0 0.00 0.32 0.31 45 1012.1
20180523215347 80 279 5.0 9.0 0.00 0.32 0.31 44 1012.1
20180523214847 80 228 3.0 10.0 0.00 0.32 0.31 44 1012.0
20180523214347 80 233 3.0 9.0 0.00 0.32 0.31 46 1012.0
20180523213846 80 295 2.0 9.0 0.00 0.32 0.31 46 1012.0
20180523213347 80 321 1.0 12.0 0.00 0.32 0.31 46 1012.0
20180523212847 79 319 4.0 9.0 0.00 0.32 0.31 44 1012.1
20180523212347 79 313 4.0 9.0 0.00 0.32 0.31 44 1012.1
20180523211847 80 271 3.0 9.0 0.00 0.32 0.31 44 1012.1
20180523211347 80 321 4.0 8.0 0.00 0.32 0.31 46 1012.0
20180523210847 80 270 6.0 12.0 0.00 0.32 0.31 45 1012.0
20180523210347 80 301 5.0 10.0 0.00 0.32 0.31 44 1012.0
20180523205847 80 297 3.0 8.0 0.00 0.32 0.31 45 1012.1
20180523205347 79 309 3.0 9.0 0.00 0.32 0.31 46 1012.1
20180523204847 80 315 2.0 12.0 0.00 0.33 0.31 48 1012.1
20180523204347 80 1 3.0 7.0 0.00 0.33 0.31 48 1012.0
20180523203847 80 313 1.0 6.0 0.00 0.34 0.31 46 1012.0
20180523203347 80 330 6.0 13.0 0.00 0.34 0.31 43 1012.1
20180523202847 80 342 3.0 9.0 0.00 0.34 0.31 45 1012.1
20180523202347 80 17 4.0 12.0 0.00 0.35 0.31 44 1012.1
20180523201847 80 334 3.0 9.0 0.00 0.36 0.31 44 1012.1
20180523201347 80 325 3.0 13.0 0.00 0.36 0.31 46 1012.1
20180523200847 80 316 4.0 12.0 0.00 0.37 0.31 43 1012.2
20180523200347 80 318 3.0 12.0 0.00 0.38 0.31 48 1012.2
20180523195848 80 337 3.0 13.0 0.00 0.39 0.31 49 1012.3
20180523195347 80 324 3.0 7.0 0.00 0.39 0.31 48 1012.2
20180523194847 80 225 2.0 7.0 0.00 0.40 0.31 44 1012.2
20180523194347 80 24 2.0 7.0 0.00 0.42 0.31 49 1012.2
20180523193848 79 319 1.0 10.0 0.00 0.45 0.31 48 1012.2
20180523193347 80 315 4.0 8.0 0.00 0.46 0.31 47 1012.1
20180523192847 80 341 4.0 10.0 0.00 0.47 0.31 50 1012.1
20180523192348 79 257 2.0 7.0 0.00 0.48 0.31 50 1012.3
20180523191848 80 29 2.0 5.0 0.00 0.48 0.31 54 1012.4
20180523191348 79 291 2.0 8.0 0.00 0.49 0.31 49 1012.4
20180523190847 79 322 5.0 10.0 0.00 0.51 0.31 52 1012.3
20180523190348 79 330 2.0 5.0 0.00 0.52 0.31 55 1012.4
20180523185847 79 317 3.0 9.0 0.00 0.53 0.31 58 1012.4
20180523185347 79 15 3.0 9.0 0.00 0.54 0.31 54 1012.4
20180523184847 79 19 2.0 9.0 0.00 0.55 0.31 55 1012.5
20180523184347 79 320 5.0 14.0 0.00 0.56 0.31 56 1012.4
20180523183847 79 325 3.0 10.0 0.00 0.56 0.31 54 1012.5
20180523183348 78 60 4.0 10.0 0.00 0.56 0.31 56 1012.6
20180523182847 78 318 4.0 10.0 0.00 0.56 0.31 55 1012.5
20180523182348 78 274 2.0 9.0 0.00 0.56 0.31 63 1012.6
20180523181847 78 26 3.0 5.0 0.00 0.56 0.31 59 1012.6
20180523181348 77 321 2.0 5.0 0.00 0.56 0.31 58 1012.5
20180523180848 78 30 3.0 7.0 0.00 0.56 0.31 62 1012.5
20180523180348 77 50 2.0 8.0 0.00 0.56 0.31 59 1012.5
20180523175848 77 268 4.0 9.0 0.00 0.56 0.31 61 1012.5
20180523175348 76 266 3.0 9.0 0.00 0.56 0.31 63 1012.5
20180523174848 76 316 3.0 9.0 0.00 0.56 0.31 64 1012.5
20180523174348 75 316 2.0 9.0 0.00 0.56 0.31 63 1012.5
20180523173848 76 302 4.0 10.0 0.00 0.56 0.31 64 1012.5
20180523173347 76 339 2.0 9.0 0.00 0.56 0.31 65 1012.7
20180523172848 76 307 3.0 10.0 0.00 0.56 0.31 63 1012.7
20180523172347 75 307 2.0 10.0 0.00 0.56 0.31 68 1012.7
20180523171848 75 326 5.0 10.0 0.00 0.56 0.31 65 1012.7
20180523171348 75 327 4.0 16.0 0.00 0.56 0.31 71 1012.8
20180523170847 75 325 3.0 10.0 0.00 0.56 0.31 73 1012.7
20180523170348 75 327 3.0 10.0 0.00 0.56 0.31 73 1012.8
20180523165848 75 3 3.0 10.0 0.00 0.56 0.31 70 1012.7
20180523165348 75 323 2.0 5.0 0.00 0.56 0.31 77 1012.7
20180523164848 73 45 2.0 7.0 0.00 0.56 0.31 75 1012.7
20180523164348 72 40 2.0 5.0 0.00 0.56 0.31 76 1012.7
20180523163848 72 20 2.0 5.0 0.00 0.56 0.31 77 1012.7
20180523163348 70 3 2.0 5.0 0.00 0.56 0.31 79 1012.7
20180523162848 69 35 4.0 9.0 0.00 0.56 0.31 79 1012.8
20180523162348 70 10 3.0 8.0 0.00 0.56 0.31 77 1012.8
20180523161848 70 40 3.0 7.0 0.00 0.56 0.31 76 1012.7
20180523161348 71 29 3.0 7.0 0.00 0.56 0.31 76 1012.7
20180523160848 72 67 2.0 7.0 0.00 0.56 0.31 76 1012.7
20180523160348 71 51 3.0 5.0 0.00 0.56 0.31 76 1012.6
20180523155848 72 29 3.0 12.0 0.00 0.56 0.31 72 1012.4
20180523155348 72 340 3.0 12.0 0.00 0.56 0.31 73 1012.4
20180523154848 72 316 5.0 10.0 0.00 0.56 0.31 73 1012.4
20180523154348 73 334 1.0 6.0 0.00 0.56 0.31 72 1012.4
20180523153848 73 304 7.0 14.0 0.00 0.56 0.31 73 1012.4
20180523153348 71 3 3.0 10.0 0.00 0.56 0.31 76 1012.4
20180523152848 71 326 5.0 12.0 0.00 0.56 0.31 74 1012.4
20180523152348 71 323 2.0 9.0 0.00 0.56 0.31 74 1012.4
20180523151849 71 305 2.0 9.0 0.00 0.56 0.31 73 1012.3
20180523151348 72 304 4.0 12.0 0.00 0.56 0.31 72 1012.3
20180523150848 73 331 3.0 9.0 0.00 0.56 0.31 73 1012.3
20180523150348 73 25 1.0 12.0 0.00 0.56 0.31 74 1012.2
20180523145849 71 321 2.0 12.0 0.00 0.56 0.31 77 1012.3
20180523145349 71 332 3.0 12.0 0.00 0.56 0.31 78 1012.2
20180523144848 71 352 2.0 10.0 0.00 0.56 0.31 79 1012.3
20180523144348 70 294 1.0 5.0 0.00 0.56 0.31 82 1012.3
20180523143848 70 10 1.0 3.0 0.00 0.56 0.31 81 1012.2
20180523143348 70 339 3.0 12.0 0.00 0.56 0.31 79 1012.2
20180523142849 71 318 4.0 9.0 0.00 0.56 0.31 79 1012.1
20180523142348 71 332 5.0 12.0 0.00 0.56 0.31 81 1012.0
20180523141848 70 316 5.0 14.0 0.00 0.56 0.31 81 1012.0
20180523141348 69 319 3.0 8.0 0.00 0.56 0.31 85 1011.9
20180523140848 69 314 0.0 5.0 0.00 0.56 0.31 88 1012.0
20180523140348 68 339 1.0 3.0 0.00 0.56 0.31 87 1011.9
20180523135848 68 324 2.0 5.0 0.00 0.56 0.31 86 1011.9
20180523135349 68 292 1.0 3.0 0.00 0.56 0.31 86 1011.8
20180523134848 69 240 2.0 8.0 0.00 0.56 0.31 86 1011.7
20180523134349 68 312 2.0 5.0 0.00 0.56 0.31 88 1011.7
20180523133848 68 308 1.0 5.0 0.00 0.56 0.31 89 1011.8
20180523133349 67 303 2.0 5.0 0.00 0.56 0.31 88 1011.8
20180523132848 68 238 3.0 10.0 0.00 0.56 0.31 89 1011.8
20180523132349 67 225 2.0 8.0 0.00 0.56 0.31 92 1011.9
20180523131848 67 300 1.0 3.0 0.00 0.56 0.31 93 1011.9
20180523131349 66 220 3.0 5.0 0.00 0.56 0.31 94 1011.9
20180523130849 65 255 0.0 0.0 0.00 0.56 0.31 94 1011.9
20180523130349 64 256 0.0 3.0 0.00 0.56 0.31 93 1012.1
20180523125848 64 255 0.0 1.0 0.00 0.56 0.31 95 1012.0
20180523125349 64 255 0.0 1.0 0.00 0.56 0.31 95 1011.9
20180523124849 63 238 0.0 2.0 0.00 0.56 0.31 95 1011.8
20180523124349 63 238 0.0 2.0 0.00 0.56 0.31 95 1011.8
20180523123848 63 238 1.0 3.0 0.00 0.56 0.31 95 1011.7
20180523123349 63 238 1.0 6.0 0.00 0.56 0.31 95 1011.7
20180523122848 63 254 2.0 5.0 0.00 0.56 0.31 96 1011.7
20180523122349 62 259 0.0 3.0 0.00 0.56 0.31 96 1011.6
20180523121849 62 258 0.0 0.0 0.00 0.56 0.31 95 1011.7
20180523121349 62 259 0.0 0.0 0.00 0.56 0.31 96 1011.6
20180523120849 62 259 0.0 0.0 0.00 0.56 0.31 96 1011.5
20180523120349 61 259 0.0 2.0 0.00 0.56 0.31 96 1011.6
20180523115849 62 258 0.0 2.0 0.00 0.56 0.31 96 1011.5
20180523115349 62 258 1.0 3.0 0.00 0.56 0.31 96 1011.5
20180523114849 61 187 0.0 0.0 0.00 0.56 0.31 96 1011.4
20180523114349 61 187 0.0 0.0 0.00 0.56 0.31 96 1011.4
20180523113849 60 186 0.0 0.0 0.00 0.56 0.31 96 1011.4
20180523113348 60 187 0.0 0.0 0.00 0.56 0.31 96 1011.4
20180523112849 60 187 0.0 0.0 0.00 0.56 0.31 96 1011.3
20180523112349 60 187 0.0 0.0 0.00 0.56 0.31 96 1011.3
20180523111849 60 187 0.0 0.0 0.00 0.56 0.31 96 1011.3
20180523111349 60 187 0.0 1.0 0.00 0.56 0.31 96 1011.3
20180523110849 60 187 0.0 1.0 0.00 0.56 0.31 96 1011.4
20180523110349 59 187 0.0 0.0 0.00 0.56 0.31 96 1011.4
20180523105849 59 187 0.0 0.0 0.00 0.56 0.31 96 1011.2
20180523105349 59 187 0.0 0.0 0.00 0.56 0.31 96 1011.0
20180523104849 59 187 0.0 0.0 0.00 0.56 0.31 96 1011.2
20180523104349 59 187 0.0 2.0 0.00 0.56 0.31 96 1011.0
20180523103849 59 187 0.0 1.0 0.00 0.56 0.31 96 1011.1
20180523103349 59 187 1.0 2.0 0.00 0.56 0.31 96 1011.0
20180523102850 59 186 0.0 2.0 0.00 0.56 0.31 96 1010.8
20180523102349 59 206 0.0 2.0 0.00 0.56 0.31 96 1010.7
20180523101849 58 206 0.0 1.0 0.00 0.56 0.31 96 1010.6
20180523101349 58 206 0.0 2.0 0.01 0.56 0.31 96 1010.5
20180523100849 58 206 2.0 6.0 0.01 0.56 0.31 96 1010.5
20180523100349 58 196 3.0 6.0 0.01 0.56 0.31 96 1010.7
20180523095849 58 192 2.0 6.0 0.01 0.56 0.31 96 1010.7
20180523095349 58 190 2.0 7.0 0.02 0.56 0.31 96 1010.8
20180523094849 58 236 1.0 3.0 0.02 0.56 0.31 96 1010.8
20180523094349 58 240 2.0 3.0 0.02 0.56 0.31 96 1010.7
20180523093850 58 240 0.0 2.0 0.02 0.56 0.31 96 1011.0
20180523093349 58 240 0.0 0.0 0.03 0.56 0.31 96 1011.0
20180523092850 58 240 0.0 0.0 0.03 0.56 0.31 96 1011.0
20180523092349 58 240 0.0 1.0 0.04 0.56 0.31 96 1011.0
20180523091850 58 240 0.0 0.0 0.04 0.56 0.31 96 1011.1
20180523091349 58 240 0.0 0.0 0.03 0.55 0.30 96 1011.1
20180523090850 58 240 0.0 0.0 0.04 0.55 0.30 96 1011.1
20180523090349 58 240 0.0 0.0 0.05 0.55 0.30 96 1011.1
20180523085850 58 240 0.0 0.0 0.05 0.55 0.30 96 1011.1
20180523085350 58 240 0.0 0.0 0.05 0.54 0.29 96 1011.1
20180523084850 58 240 0.0 0.0 0.05 0.54 0.29 96 1011.2
20180523084350 58 240 0.0 0.0 0.06 0.54 0.29 96 1011.1
20180523083850 58 240 0.0 0.0 0.07 0.54 0.29 96 1011.3
20180523083350 58 240 0.0 1.0 0.07 0.53 0.28 96 1011.6
20180523082850 58 240 1.0 3.0 0.08 0.53 0.28 96 1011.6
20180523082349 58 240 1.0 2.0 0.08 0.52 0.27 96 1011.4
20180523081850 58 240 1.0 3.0 0.10 0.52 0.27 96 1011.3
20180523081350 58 235 0.0 3.0 0.11 0.52 0.27 96 1011.3
20180523080850 58 235 1.0 5.0 0.11 0.51 0.26 96 1011.1
20180523080350 58 211 1.0 3.0 0.12 0.50 0.25 96 1010.8
20180523075851 58 212 2.0 3.0 0.14 0.50 0.25 96 1010.8
20180523075351 58 188 2.0 5.0 0.14 0.49 0.24 96 1010.5
20180523074850 58 165 2.0 8.0 0.16 0.49 0.24 96 1010.3
20180523074350 58 158 2.0 6.0 0.16 0.48 0.23 96 1010.3
20180523073850 58 144 2.0 5.0 0.16 0.47 0.22 96 1010.6
20180523073350 58 170 2.0 5.0 0.16 0.46 0.21 96 1010.6
20180523072850 58 192 2.0 3.0 0.16 0.45 0.20 96 1010.9
20180523072350 58 204 0.0 2.0 0.17 0.44 0.19 96 1011.2
20180523071850 58 204 1.0 3.0 0.16 0.42 0.17 96 1011.3
20180523071350 58 204 1.0 3.0 0.16 0.41 0.16 96 1011.6
20180523070850 58 204 3.0 5.0 0.15 0.40 0.15 96 1011.6
20180523070350 58 209 2.0 3.0 0.13 0.38 0.13 96 1011.6
20180523065850 58 248 0.0 2.0 0.11 0.36 0.11 95 1011.3
20180523065350 58 248 0.0 2.0 0.10 0.35 0.10 95 1011.6
20180523064850 58 248 0.0 1.0 0.08 0.33 0.08 95 1011.8
20180523064350 58 248 0.0 1.0 0.07 0.32 0.07 95 1011.9
20180523063850 58 248 0.0 3.0 0.06 0.31 0.06 95 1011.9
20180523063350 58 203 2.0 3.0 0.05 0.30 0.05 95 1011.9
20180523062850 58 223 1.0 2.0 0.04 0.29 0.04 95 1011.8
20180523062350 58 223 1.0 3.0 0.02 0.27 0.02 95 1012.1
20180523061850 58 224 0.0 2.0 0.01 0.26 0.01 95 1012.2
20180523061350 58 224 0.0 2.0 0.00 0.25 0.00 95 1012.3
20180523060850 58 224 1.0 2.0 0.00 0.25 0.00 95 1012.3
20180523060350 58 224 0.0 2.0 0.00 0.25 0.00 95 1012.4
20180523055850 58 224 0.0 3.0 0.00 0.25 0.00 95 1012.4
20180523055350 58 223 0.0 1.0 0.00 0.25 0.00 95 1012.4
20180523054850 58 223 0.0 1.0 0.00 0.25 0.00 95 1012.5
20180523054350 58 223 0.0 1.0 0.00 0.25 0.00 95 1012.4